Location: Unspecified
(43.4680°N, 87.1740°E)
Time: 20:31:59
(UTC+00:00)

Landsat 7 - Pass Details

Date: 17 April 2021
Orbit: 701 x 703 km, 98.0° (Epoch: 12 May)

Event Time Altitude Azimuth Distance (km) Brightness Sun altitude
Exits shadow 14:40:53 34° 135° (SE) 1,161 4.4 -17.9°
Maximum altitude 14:42:46 57° 73° (ENE) 829 3.9 -18.1°
Drops below altitude 10° 14:47:26 10° 355° (N) 2,178 6.9 -18.8°
Sets 14:49:43 0° 352° (N) 3,101 7.8 -19.2°
